Voltar ao catálogo

FENGYUN 1C DEB

AtivoSSO
NORAD 38727·DEBRIS·🇨🇳 China

Lançado May 10, 1999 de Taiyuan Satellite Launch Center

Loading…

Próximas Passagens (próximas 24 horas)

TLE

EnvelhecendoSource: Space-Track

Época: Sep 9, 2026, 18:47 UTC

1 38727U 99025ETU 26252.78295520  .00001695  00000-0  10219-2 0  9993
2 38727  98.6157 241.3984 0101874 176.7048 307.4108 14.05388484756387

Acompanhe FENGYUN 1C DEB em tempo real com AllMySat

Download on the App Store